Regional Weather Roundup
Issued by NWS Boston, MA

Current Version | Previous Version | Text Only | Print | Product List | Glossary On
Versions: 1 2 3 4 5 6 7 8 9 10 11 12 13 14 15 16 17 18 19 20 21 22 23 24 25 26 27
000 ASUS41 KBOX 222210 RWRBOX REGIONAL WEATHER ROUNDUP NATIONAL WEATHER SERVICE TAUNTON MA 600 PM EDT WED OCT 22 2014 NOTE: "FAIR" INDICATES FEW OR NO CLOUDS BELOW 12,000 FEET WITH NO SIGNIFICANT WEATHER AND/OR OBSTRUCTIONS TO VISIBILITY. THE FOLLOWING OBSERVATION LOCATIONS DO NOT REPORT PRESENT WEATHER...PROVINCETOWN... SMITHFIELD...BLOCK ISLAND...KEENE...AND OXFORD. MAZALL-222300- EASTERN MASSACHUSETTS CITY SKY/WX TMP DP RH WIND PRES REMARKS BOSTON DRIZZLE 51 50 96 NE33G43 29.87F FOG BEVERLY RAIN 50 48 93 NE25G43 29.90F FOG LAWRENCE LGT RAIN 48 46 93 NE23G35 29.95S FOG BEDFORD LGT RAIN 48 47 96 NE21G31 29.90F FOG BLUE HILL N/A 49 49 100 NE23G49 29.84F NORWOOD RAIN 51 49 92 N22G37 29.87F FOG MARSHFIELD NOT AVBL PLYMOUTH LGT RAIN 56 55 97 NE21G31 29.79F FOG TAUNTON RAIN 53 51 93 N12G24 29.80F FOG NEW BEDFORD RAIN 54 52 93 N12G20 29.76F $$ MAZALL-222300- CAPE COD AND THE ISLANDS CITY SKY/WX TMP DP RH WIND PRES REMARKS FALMOUTH LGT RAIN 57 57 100 NE16G25 29.74S FOG HYANNIS CLOUDY 59 58 96 NE13G24 29.73S CHATHAM CLOUDY 58 58 100 NE16G25 29.76F FOG PROVINCETOWN CLOUDY 57 54 88 NE25G36 29.80F NANTUCKET CLOUDY 58 56 93 NE21G26 29.71F FOG MARTHAS VNYRD LGT RAIN 56 55 97 N13 29.72F $$ MAZALL-222300- CENTRAL AND WESTERN MASSACHUSETTS CITY SKY/WX TMP DP RH WIND PRES REMARKS WORCESTER LGT RAIN 46 45 96 NE20G36 29.88F FOG FITCHBURG LGT RAIN 50 46 86 N12G21 29.95F FOG ORANGE LGT RAIN 50 46 86 N15 29.93F SPRINGFIELD LGT RAIN 52 46 82 NE16G25 29.89F WESTFIELD LGT RAIN 51 47 86 N15G23 29.91S FOG NORTH ADAMS CLOUDY 49 46 90 VRB3 29.97S PITTSFIELD CLOUDY 49 46 90 NE12G17 29.92F $$ RIZALL-222300- RHODE ISLAND CITY SKY/WX TMP DP RH WIND PRES REMARKS PROVIDENCE LGT RAIN 51 49 92 N25G37 29.81F FOG NEWPORT LGT RAIN 53 49 86 N25G40 29.75F FOG BLOCK ISLAND CLOUDY 54 48 82 N20G38 29.70F SMITHFIELD CLOUDY 48 41 76 N22G29 29.84F WESTERLY LGT RAIN 52 49 89 N22G30 29.74F $$ CTZALL-222300- CONNECTICUT CITY SKY/WX TMP DP RH WIND PRES REMARKS BRADLEY INTL LGT RAIN 52 47 83 N18 29.87F FOG HARTFORD CLOUDY 52 47 83 N18G31 29.86F BRIDGEPORT LGT RAIN 53 49 86 N20G29 29.80F DANBURY CLOUDY 52 46 80 NE16G25 29.86F GROTON LGT RAIN 51 48 89 N24G38 29.73F NEW HAVEN LGT RAIN 54 49 83 N22G31 29.78F CHESTER NOT AVBL MERIDEN LGT RAIN 51 48 89 N13G24 29.83F FOG WILLIMANTIC LGT RAIN 51 47 86 N16G30 29.83F OXFORD LGT RAIN 50 43 76 NE20G31 29.83F FOG $$ MEZ002-015-021-024-NHZ003-005-008-011-012-014-VTZ005-008-222300- NORTHERN NEW ENGLAND CITY SKY/WX TMP DP RH WIND PRES REMARKS PORTLAND ME CLOUDY 50 46 86 NE20G31 30.04S FOG BANGOR ME LGT RAIN 47 44 90 NE16 30.18S CONCORD NH LGT RAIN 47 45 93 N14G28 29.99F FOG MANCHESTER NH LGT RAIN 49 44 83 N17G30 29.96F NASHUA NH LGT RAIN 48 46 93 NE15 29.96F FOG PORTSMOUTH NH LGT RAIN 48 46 91 NE18G25 29.96F VSB 1 JAFFREY NH LGT RAIN 47 45 93 N9G24 29.96S FOG KEENE NH CLOUDY 48 41 76 N15 29.98S BURLINGTON VT MOCLDY 53 42 66 N12 30.14F MT. WASHINGTON FRZ RAIN 32 32 100 E77G84 N/A VSB 0 WCI 11 $$ NYZ052-076-222300- EASTERN NEW YORK CITY SKY/WX TMP DP RH WIND PRES REMARKS ALBANY CLOUDY 51 45 79 N15G22 30.00F NEW YORK CITY RAIN 53 50 89 N14 29.82F $$ ANZALL-222300- MARINE OBSERVATIONS STATION/POSITION TIME TEMP WIND PRES VSBY WAVE AIR SEA DIR/SP/G HT/PER (UTC) (F) (DEG/KT/KT) (MB) (MI) (FT/S) BOSTON BUOY NOT AVBL BUZZARDS BAY NOT AVBL NANTUCKET SOUND NOT AVBL MASS BAY-STELLWA NOT AVBL ISLE OF SHOALS NOT AVBL S OF BLOCK IS NOT AVBL $$ ......................KEY......................... SKY/WX - SKY CONDITION/PRESENT WEATHER TMP - TEMPERATURE IN FAHRENHEIT DWPT - DEWPOINT IN FAHRENHEIT RH - RELATIVE HUMIDITY IN PERCENT WIND - DIRECTION AND SPEED IN MPH PRES - MEAN SEA LEVEL PRESSURE IN INCHES OF HG WCI - WIND CHILL INDEX VSB - VISIBILITY IN MILES HX - HEAT INDEX TC - TEMPERATURE IN CELSIUS VRB - VARIABLE WIND DIRECTION N/A - NOT AVAILABLE

USA.gov is the U.S. government's official web portal to all federal, state and local government web resources and services.